EW6005 Weather Reports


Display with metric or nautical units.
time (UTC)temp
F
wind
direction
speed
MPH
gust
MPH
rain 1hr
in
rain 24hr
in
rain mn
in
humidity
%
barometer
mb
20260506080330 78 0 2.0 6.0 0.00 0.00 0.00 91 994.0
20260506073055 78 0 2.0 7.0 0.00 0.00 0.00 90 994.5
20260506072552 78 208 2.0 7.0 0.00 0.00 0.00 90 994.5
20260506072053 78 0 2.0 8.0 0.00 0.00 0.00 90 994.5
20260506071811 78 0 2.0 8.0 0.00 0.00 0.00 90 994.6
20260506071050 78 0 2.0 5.0 0.00 0.00 0.00 90 994.7
20260506070550 78 0 2.0 5.0 0.00 0.00 0.00 90 994.7
20260506062037 78 0 2.0 5.0 0.00 0.00 0.00 89 994.9
20260506061535 78 0 2.0 5.0 0.00 0.00 0.00 89 994.8
20260506061032 78 0 2.0 6.0 0.00 0.00 0.00 89 994.9
20260506060533 78 0 2.0 6.0 0.00 0.00 0.00 89 994.9
20260506051016 79 0 2.0 6.0 0.00 0.00 0.00 88 994.7
20260506050514 79 0 2.0 6.0 0.00 0.00 0.00 88 994.6
20260506045013 79 0 4.0 13.0 0.00 0.00 0.00 87 994.6
20260506044513 79 0 3.0 9.0 0.00 0.00 0.00 87 994.6
20260506044013 79 0 3.0 14.0 0.00 0.00 0.00 87 994.6
20260506043513 79 0 3.0 14.0 0.00 0.00 0.00 87 994.6
20260506043014 79 0 2.0 6.0 0.00 0.00 0.00 87 994.6
20260506042737 79 0 2.0 6.0 0.00 0.00 0.00 87 994.6
20260506042014 79 0 2.0 8.0 0.00 0.00 0.00 87 994.6
20260506041512 79 0 2.0 8.0 0.00 0.00 0.00 87 994.7
20260506041500 79 0 2.0 6.0 0.00 0.00 0.00 87 994.7
20260506040506 79 0 2.0 6.0 0.00 0.00 0.00 87 994.7
20260506040007 79 0 2.0 6.0 0.00 0.00 0.00 87 994.7
20260506035506 79 0 1.0 6.0 0.00 0.00 0.00 87 994.5
20260506035005 79 0 2.0 5.0 0.00 0.00 0.00 87 994.4
20260506034505 79 0 2.0 5.0 0.00 0.00 0.00 86 994.4
20260506034005 79 0 2.0 10.0 0.00 0.00 0.00 86 994.3
20260506033725 79 0 2.0 10.0 0.00 0.00 0.00 86 994.3
20260506033227 79 0 2.0 5.0 0.00 0.00 0.00 86 994.4
20260506032505 80 0 2.0 6.0 0.00 0.00 0.00 86 994.2
20260506032005 80 0 2.0 6.0 0.00 0.00 0.00 86 994.2
20260506031504 80 0 1.0 8.0 0.00 0.00 0.00 86 994.3
20260506031005 80 0 2.0 8.0 0.00 0.00 0.00 85 994.2
20260506030505 80 0 2.0 4.0 0.00 0.00 0.00 85 994.2
20260506030005 80 0 2.0 6.0 0.00 0.00 0.00 85 994.1
20260506025505 80 0 2.0 6.0 0.00 0.00 0.00 85 994.0
20260506025005 80 0 2.0 9.0 0.00 0.00 0.00 85 994.0
20260506024505 80 0 2.0 9.0 0.00 0.00 0.00 85 993.9
20260506024005 80 0 2.0 6.0 0.00 0.00 0.00 85 993.8
20260506023723 80 0 1.0 4.0 0.00 0.00 0.00 85 993.7
20260506023004 80 0 1.0 4.0 0.00 0.00 0.00 85 993.7
20260506022551 80 0 0.0 5.0 0.00 0.00 0.00 85 993.6
20260506021505 80 0 1.0 6.0 0.00 0.00 0.00 84 993.4
20260506021005 80 0 2.0 6.0 0.00 0.00 0.00 84 993.4
20260506020505 80 0 1.0 3.0 0.00 0.00 0.00 84 993.3
20260506020001 80 0 2.0 5.0 0.00 0.00 0.00 84 993.3
20260506015725 80 0 2.0 5.0 0.00 0.00 0.00 84 993.1
20260506015444 80 0 2.0 6.0 0.00 0.00 0.00 84 993.1
20260506014501 80 0 3.0 8.0 0.00 0.00 0.00 84 993.0
20260506014221 80 0 2.0 8.0 0.00 0.00 0.00 84 992.8
20260506013501 80 0 2.0 6.0 0.00 0.00 0.00 84 992.8
20260506013001 80 0 2.0 6.0 0.00 0.00 0.00 83 992.7
20260506012723 81 0 2.0 6.0 0.00 0.00 0.00 83 992.7
20260506012222 81 0 2.0 6.0 0.00 0.00 0.00 83 992.6
20260506011501 81 0 2.0 5.0 0.00 0.00 0.00 83 992.6
20260506010958 81 0 3.0 6.0 0.00 0.00 0.00 83 992.5
20260506010459 81 0 3.0 9.0 0.00 0.00 0.00 83 992.4
20260506005958 81 0 2.0 9.0 0.00 0.00 0.00 83 992.4
20260506005459 81 0 2.0 6.0 0.00 0.00 0.00 82 992.4
20260506004957 81 0 2.0 6.0 0.00 0.00 0.00 82 992.2
20260506004455 81 0 2.0 5.0 0.00 0.00 0.00 82 992.3
20260506003954 81 0 2.0 6.0 0.00 0.00 0.00 82 992.3
20260506003454 82 0 2.0 6.0 0.00 0.00 0.00 82 992.2
20260506002953 82 0 2.0 5.0 0.00 0.00 0.00 82 992.3
20260506002452 82 0 2.0 4.0 0.00 0.00 0.00 82 992.3
20260506001951 82 0 2.0 10.0 0.00 0.00 0.00 82 992.3
20260506001451 82 0 3.0 10.0 0.00 0.00 0.00 81 992.3
20260506001217 82 0 3.0 11.0 0.00 0.00 0.00 81 992.3
20260506000451 82 0 4.0 11.0 0.00 0.00 0.00 81 992.4
20260505235949 82 0 4.0 13.0 0.00 0.00 0.00 81 992.3
20260505235931 82 0 3.0 13.0 0.00 0.00 0.00 81 992.1
20260505234945 82 0 2.0 5.0 0.00 0.00 0.00 81 992.1
20260505234445 83 0 2.0 6.0 0.00 0.00 0.00 81 992.2
20260505233945 83 0 2.0 8.0 0.00 0.00 0.00 81 992.3
20260505233700 83 0 3.0 11.0 0.00 0.00 0.00 80 992.2
20260505232939 83 0 3.0 11.0 0.00 0.00 0.00 80 992.1
20260505232439 83 0 2.0 8.0 0.00 0.00 0.00 81 992.0
20260505231938 83 0 2.0 6.0 0.00 0.00 0.00 81 992.0
20260505231437 83 0 2.0 6.0 0.00 0.00 0.00 81 991.9
20260505231424 83 0 2.0 6.0 0.00 0.00 0.00 80 992.0
20260505230436 83 0 2.0 6.0 0.00 0.00 0.00 80 992.1
20260505225937 83 0 3.0 10.0 0.00 0.00 0.00 80 992.2
20260505225435 83 0 3.0 10.0 0.00 0.00 0.00 80 992.3
20260505224935 84 0 2.0 10.0 0.00 0.00 0.00 80 992.1
20260505224435 84 0 2.0 11.0 0.00 0.00 0.00 79 991.9
20260505223933 84 0 2.0 11.0 0.00 0.00 0.00 79 992.1
20260505223432 84 0 3.0 11.0 0.00 0.00 0.00 78 992.0
20260505222930 84 0 4.0 11.0 0.00 0.00 0.00 78 991.9
20260505222428 84 0 4.0 12.0 0.00 0.00 0.00 78 992.0
20260505222147 85 0 2.0 12.0 0.00 0.00 0.00 78 992.0
20260505221423 85 0 3.0 10.0 0.00 0.00 0.00 79 992.1
20260505220924 85 0 3.0 11.0 0.00 0.00 0.00 79 992.1
20260505220424 84 0 3.0 11.0 0.00 0.00 0.00 78 992.0
20260505220143 85 0 3.0 10.0 0.00 0.00 0.00 79 992.0
20260505215424 84 0 4.0 10.0 0.00 0.00 0.00 78 992.2
20260505214921 84 151 3.0 13.0 0.00 0.00 0.00 78 992.3
20260505214639 84 0 4.0 13.0 0.00 0.00 0.00 78 992.4
20260505213918 84 0 4.0 13.0 0.00 0.00 0.00 78 992.5
20260505213642 84 0 2.0 11.0 0.00 0.00 0.00 79 992.6
20260505212919 84 0 2.0 8.0 0.00 0.00 0.00 80 992.6
20260505212417 84 0 3.0 8.0 0.00 0.00 0.00 79 992.7
20260505211917 84 0 3.0 8.0 0.00 0.00 0.00 79 992.8
20260505211412 84 0 3.0 11.0 0.00 0.00 0.00 79 992.9
20260505210912 84 0 4.0 11.0 0.00 0.00 0.00 79 992.9
20260505210412 84 0 3.0 12.0 0.00 0.00 0.00 79 992.9
20260505205913 84 0 2.0 12.0 0.00 0.00 0.00 79 993.0
20260505205636 84 0 3.0 11.0 0.00 0.00 0.00 79 993.1
20260505204912 84 0 3.0 11.0 0.00 0.00 0.00 79 993.1
20260505204410 84 0 4.0 13.0 0.00 0.00 0.00 79 993.2
20260505203908 84 0 3.0 13.0 0.00 0.00 0.00 79 993.2
20260505203407 84 0 3.0 11.0 0.00 0.00 0.00 79 993.3
20260505202908 84 0 4.0 11.0 0.00 0.00 0.00 79 993.5
20260505202409 84 0 3.0 10.0 0.00 0.00 0.00 79 993.4
20260505202127 84 0 4.0 11.0 0.00 0.00 0.00 78 993.4
20260505201409 84 0 4.0 11.0 0.00 0.00 0.00 78 993.5
20260505200908 84 0 4.0 12.0 0.00 0.00 0.00 79 993.5
20260505200409 84 0 4.0 15.0 0.00 0.00 0.00 79 993.6
20260505200128 84 0 4.0 16.0 0.00 0.00 0.00 79 993.6
20260505195408 84 0 4.0 17.0 0.00 0.00 0.00 78 993.8
20260505195129 84 268 4.0 17.0 0.00 0.00 0.00 79 993.7
20260505194408 84 0 3.0 10.0 0.00 0.00 0.00 80 993.8
20260505193908 83 0 3.0 12.0 0.00 0.00 0.00 81 993.9
20260505193408 83 0 2.0 12.0 0.00 0.00 0.00 80 994.0
20260505192905 83 0 3.0 6.0 0.00 0.00 0.00 81 994.1
20260505192404 83 155 4.0 12.0 0.00 0.00 0.00 81 994.1
20260505191904 83 0 4.0 14.0 0.00 0.00 0.00 80 994.0
20260505191406 83 0 4.0 14.0 0.00 0.00 0.00 82 994.0
20260505190904 83 0 3.0 10.0 0.00 0.00 0.00 82 994.1
20260505190404 83 0 3.0 15.0 0.00 0.00 0.00 82 994.2
20260505190122 83 0 3.0 15.0 0.00 0.00 0.00 82 994.2
20260505185404 83 0 2.0 9.0 0.00 0.00 0.00 83 994.4
20260505184904 82 0 3.0 10.0 0.00 0.00 0.00 83 994.4
20260505184400 82 0 3.0 10.0 0.00 0.00 0.00 84 994.4
20260505183902 82 0 2.0 10.0 0.00 0.00 0.00 84 994.4
20260505183401 81 0 2.0 10.0 0.00 0.00 0.00 85 994.5
20260505182900 81 0 3.0 15.0 0.00 0.00 0.00 85 994.5
20260505182401 81 0 4.0 15.0 0.00 0.00 0.00 84 994.5
20260505181900 81 0 3.0 10.0 0.00 0.00 0.00 85 994.6
20260505181841 81 0 3.0 12.0 0.00 0.00 0.00 85 994.6
20260505180900 81 0 3.0 12.0 0.00 0.00 0.00 85 994.7
20260505180621 80 0 3.0 9.0 0.00 0.00 0.00 85 994.7
20260505180342 80 0 3.0 9.0 0.00 0.00 0.00 85 994.8
20260505175356 80 0 4.0 13.0 0.00 0.00 0.00 85 994.7
20260505175118 80 0 3.0 14.0 0.00 0.00 0.00 85 994.7
20260505174356 80 0 2.0 14.0 0.00 0.00 0.00 86 994.8
20260505173856 80 0 3.0 10.0 0.00 0.00 0.00 85 994.7
20260505173356 80 0 3.0 15.0 0.00 0.00 0.00 86 994.8
20260505172856 80 0 2.0 15.0 0.00 0.00 0.00 86 994.9
20260505172356 80 0 2.0 11.0 0.00 0.00 0.00 86 994.8
20260505171857 80 0 3.0 11.0 0.00 0.00 0.00 86 994.9
20260505171613 80 0 3.0 10.0 0.00 0.00 0.00 86 994.9
20260505170852 80 0 3.0 10.0 0.00 0.00 0.00 86 995.0
20260505170352 80 0 3.0 10.0 0.00 0.00 0.00 86 994.9
20260505170116 79 0 4.0 12.0 0.00 0.00 0.00 87 995.0
20260505165352 79 0 3.0 12.0 0.00 0.00 0.00 87 995.0
20260505164854 79 0 3.0 8.0 0.00 0.00 0.00 87 995.0
20260505164614 79 0 3.0 12.0 0.00 0.00 0.00 87 995.0
20260505163855 78 0 3.0 12.0 0.00 0.00 0.00 88 995.1
20260505163354 78 182 2.0 9.0 0.00 0.00 0.00 88 995.1
20260505162852 78 216 2.0 9.0 0.00 0.00 0.00 88 995.2
20260505162351 78 148 2.0 7.0 0.00 0.00 0.00 88 995.3
20260505162118 78 234 3.0 12.0 0.00 0.00 0.00 88 995.3
20260505161615 78 217 3.0 12.0 0.00 0.00 0.00 88 995.2
20260505161120 78 169 2.0 7.0 0.00 0.00 0.00 88 995.1
20260505160352 78 148 3.0 7.0 0.00 0.00 0.00 88 995.0
20260505153349 77 0 2.0 10.0 0.00 0.00 0.00 88 995.0
20260505152851 77 0 3.0 10.0 0.00 0.00 0.00 88 994.8
20260505152350 77 0 3.0 10.0 0.00 0.00 0.00 88 994.8
20260505151850 77 0 3.0 10.0 0.00 0.00 0.00 88 994.8
20260505151350 77 0 3.0 11.0 0.00 0.00 0.00 88 994.8
20260505150851 77 0 2.0 11.0 0.00 0.00 0.00 88 994.8
20260505150351 77 0 3.0 9.0 0.00 0.00 0.00 89 994.7
20260505140337 75 0 4.0 12.0 0.00 0.00 0.00 91 994.6
20260505124546 73 0 2.0 6.0 0.00 0.00 0.00 92 994.2
20260505124040 73 0 2.0 6.0 0.00 0.00 0.00 92 993.9
20260505123319 72 0 2.0 5.0 0.00 0.00 0.00 92 993.9
20260505122817 72 0 1.0 5.0 0.00 0.00 0.00 92 994.0
20260505122316 72 0 1.0 5.0 0.00 0.00 0.00 92 994.2
20260505121815 72 0 2.0 5.0 0.00 0.00 0.00 92 994.2
20260505121313 72 0 1.0 6.0 0.00 0.00 0.00 92 994.4
20260505120814 72 0 1.0 6.0 0.00 0.00 0.00 92 994.2
20260505120311 72 0 2.0 6.0 0.00 0.00 0.00 92 994.2
20260505120034 72 0 2.0 6.0 0.00 0.00 0.00 92 994.1
20260505115312 72 0 1.0 6.0 0.00 0.00 0.00 92 994.1
20260505114813 72 0 2.0 5.0 0.00 0.00 0.00 92 994.0
20260505114312 72 0 2.0 5.0 0.00 0.00 0.00 92 993.8
20260505113812 72 0 2.0 8.0 0.00 0.00 0.00 92 993.7
20260505113311 72 0 2.0 8.0 0.00 0.00 0.00 92 993.8
20260505112812 72 0 2.0 8.0 0.00 0.00 0.00 92 994.1
20260505112531 72 0 2.0 8.0 0.00 0.00 0.00 92 994.1
20260505112125 72 0 2.0 6.0 0.00 0.00 0.00 91 994.0
20260505110807 72 0 2.0 9.0 0.00 0.00 0.00 91 994.0
20260505110527 72 0 2.0 6.0 0.00 0.00 0.00 91 993.9
20260505101800 71 0 1.0 4.0 0.00 0.00 0.00 91 994.1
20260505101527 71 0 1.0 3.0 0.00 0.00 0.00 91 994.0
20260505100800 71 0 0.0 3.0 0.00 0.00 0.00 91 994.0
20260505100256 71 0 0.0 3.0 0.00 0.00 0.00 91 994.0
20260505095756 71 0 1.0 4.0 0.00 0.00 0.00 91 994.0
20260505095255 71 0 1.0 5.0 0.00 0.00 0.00 91 994.1
20260505094755 71 0 1.0 5.0 0.00 0.00 0.00 91 994.2
20260505094256 71 0 2.0 4.0 0.00 0.00 0.00 90 994.1
20260505093755 71 0 1.0 4.0 0.00 0.00 0.00 90 994.0
20260505093255 71 0 1.0 4.0 0.00 0.00 0.00 91 994.1
20260505092755 71 0 1.0 4.0 0.00 0.00 0.00 90 994.1
20260505092255 71 0 1.0 4.0 0.00 0.00 0.00 90 994.2
20260505091755 71 0 2.0 5.0 0.00 0.00 0.00 90 994.2
20260505091255 71 0 1.0 5.0 0.00 0.00 0.00 90 994.4
20260505090755 71 0 0.0 4.0 0.00 0.00 0.00 90 994.4
20260505090255 71 0 1.0 3.0 0.00 0.00 0.00 90 994.4
20260505090246 71 0 1.0 2.0 0.00 0.00 0.00 90 994.4
20260505085526 71 0 1.0 5.0 0.00 0.00 0.00 89 994.4
20260505084753 71 0 1.0 5.0 0.00 0.00 0.00 89 994.4
20260505084247 71 0 2.0 5.0 0.00 0.00 0.00 89 994.5
20260505083747 71 0 1.0 5.0 0.00 0.00 0.00 89 994.4
20260505083247 72 0 1.0 5.0 0.00 0.00 0.00 89 994.4
20260505083016 72 0 2.0 6.0 0.00 0.00 0.00 89 994.5
20260505082247 72 0 2.0 9.0 0.00 0.00 0.00 89 994.6
20260505081746 72 0 2.0 9.0 0.00 0.00 0.00 89 994.7
20260505081247 72 0 2.0 6.0 0.00 0.00 0.00 89 994.7
20260505081009 72 0 2.0 9.0 0.00 0.00 0.00 88 994.6